COSMOS 2227

Satellite information

Favourite Embed

Satellite Type and Status

PAYLOADIN ORBIT

Key statistics

Satellite COSMOS 2227 at a glance.

Uptime

12041

Days in orbit

Revolutions

≈ 14.1

Per day

Orbit

LEO

Low Earth Orbit

Inclination

71.0

Latest

Satellite identification and parameters

Extended collection of information and parameters for COSMOS 2227.

Object identification

Identified? True

Debris? False

Object name: COSMOS 2227

International designator: 1992-093A

Object number (NORAD): 22284

Object ID (CCSDS): 22284

Country: COMMONWEALTH OF INDEPENDENT STATES (CIS)

Current information (Y/N): Y

RCS size: LARGE

Orbital parameters

Period: 101.857 minutes

Inclination: 70.9787 deg

SMA: 7224.715 km

Apoapsis: 859.598 km

Periapsis: 833.562 km

RAAN: 215.6703 deg

Eccentricy: 0.00180186

Argument of periapsis: 173.9063 deg

Mean anomaly: 186.2282 deg

Mean motion: 14.13746931 rev/day

Mean motion (dot): -0.0000016 rev/day2

B* drag term: -0.000059405604 1/REarth

Two-line elements (TLE)

Creation date: Dec. 12, 2025, 10:14 a.m.

Reference frame: TEME

Reference center: EARTH

Epoch: Dec. 12, 2025, 1:51 a.m. UTC

TLE line 0: 0 COSMOS 2227

TLE line 1: 1 22284U 92093A 25346.07757298 -.00000160 00000-0 -59406-4 0 9993

TLE line 2: 2 22284 70.9787 215.6703 0018019 173.9063 186.2282 14.13746931700386

Live tracking on map

Real-time ground track for satellite COSMOS 2227.

In-orbit conjunctions

A list of the most updated potential collisions computed for object COSMOS 2227.

Target Orbit TCA Probability of collision Miss distance Type
FENGYUN 1C DEB SSO 2025-11-21 06:15:57 0.0002363793 102.0 (m) DEBRIS
YAOGAN 30 DEB SSO 2025-08-24 08:32:04 0.0001652908 766.0 (m) DEBRIS
METEOR 2-17 DEB LEO 2025-08-20 09:13:16 0.0001586195 210.0 (m) DEBRIS
FENGYUN 1C DEB SSO 2025-05-15 01:18:10 0.0004396225 895.0 (m) DEBRIS

Associated space launch

Second generation ELING satellite

COSMOS 2227 was lifted into orbit during the mission ‘Zenit-2 | Tselina-2 12’, on board a Zenit-2 space rocket.

The launch took place on Dec. 25, 1992, 5:56 a.m. from 45/1.

For more information about the launch, click the button.

Launch to space Zenit-2 | Tselina-2 12
Zenit-2 | Tselina-2 12

Agency: N/A

Status: Launch Successful

Launch date: Dec. 25, 1992, 5:56 a.m. UTC

Rocket: Zenit-2

Launch pad: 45/1

Location: Baikonur Cosmodrome, Republic of Kazakhstan

...

Latest news about this satellite

There are no fresh news available about this satellite. Check back as we update our databases every day.


Newsletter sign-up

Weekly statistics, charts and insights to help you stay on top of the space industry.